SCP
0 0 0 0 0 0 0 0 0 0 0 0 0 0 0 0 1 1 2 3 3 3 3 2 2 2 2 2 2 2 3 3 3 3 3 3 2 2 2 2 2 2 2 2
-0 -0 -0 0 0 0 0 0 0 0 0 0 0 0 0 0 0 1 2 3 3 2 2 2 2 2 2 2 2 2 2 2 2 2 2 2 2 2 2 2 2 2 2 2
-0 -0 -0 0 0 0 0 0 0 0 0 0 0 0 0 0 1 1 2 2 2 2 2 2 1 1 1 2 2 2 2 2 2 2 2 2 2 2 2 2 2 2 2 2
-0 -0 -0 0 0 0 0 0 0 0 0 0 0 0 0 0 0 1 1 1 1 1 1 1 1 1 1 1 1 1 1 1 1 1 1 1 1 1 1 1 1 1 1 2
0 0 0 0 0 0 0 0 0 0 0 0 0 0 0 0 0 0 1 1 1 1 1 1 1 1 1 1 1 1 1 1 1 1 1 1 1 1 1 1 1 1 1 1
0 0 0 0 0 0 0 0 0 0 0 0 0 0 0 0 0 0 0 1 1 0 0 0 0 1 1 1 1 1 1 1 1 1 1 1 1 1 1 1 1 1 1 1
0 0 0 0 0 0 0 0 0 0 0 0 0 0 0 0 0 0 0 0 0 0 0 0 0 0 1 1 1 1 1 1 1 1 0 0 0 0 0 0 0 0 0 0
0 0 0 0 0 0 0 0 0 0 0 0 0 0 0 0 0 0 0 0 0 0 0 0 0 0 0 1 1 1 1 1 1 1 0 0 0 0 0 0 0 0 0 0
0 0 0 0 0 0 0 0 0 0 0 0 0 0 0 0 0 0 0 0 0 0 0 0 0 0 0 0 1 1 1 1 1 0 0 0 0 0 0 0 0 0 0 0
0 0 0 0 0 0 0 0 0 0 0 0 0 0 0 0 0 0 0 0 0 0 0 0 0 0 0 0 0 0 1 0 0 0 0 0 0 0 0 0 0 0 0 0
0 0 0 0 0 0 0 0 0 0 0 0 0 0 0 0 0 0 0 0 0 0 0 0 0 0 0 0 0 0 0 0 0 0 0 0 0 0 0 0 0 0 0 0
-0 -0 -0 0 0 0 0 0 0 0 0 0 0 0 0 0 0 0 0 0 0 0 0 0 0 0 0 0 0 0 0 0 0 0 0 0 0 0 0 0 0 0 0 0
0 0 0 0 0 0 0 0 0 0 0 0 0 0 0 0 0 0 0 0 0 0 0 0 0 0 0 0 0 0 0 0 0 0 0 0 0 0 0 0 0 0 0 0
0 0 0 0 0 0 0 0 0 0 0 0 0 0 0 0 0 0 0 0 0 0 0 0 0 0 0 0 0 0 0 0 0 0 0 0 0 0 0 0 0 0 0 0
0 0 0 0 0 0 0 0 0 0 0 0 0 0 0 0 0 0 0 0 0 0 0 0 0 0 0 0 0 0 0 0 0 0 0 0 0 0 0 0 0 0 0 0
0 0 0 0 0 0 0 0 0 0 0 0 0 0 0 0 0 0 0 0 0 0 0 0 0 0 0 0 0 0 0 0 0 0 0 0 0 0 0 0 0 0 0 0
0 0 0 0 0 0 0 0 0 0 0 0 0 0 0 0 0 0 0 0 0 0 0 0 0 0 0 0 0 0 0 0 0 0 0 0 0 0 0 0 0 0 0 0
0 0 0 0 0 0 0 0 0 0 0 0 0 0 0 0 0 0 0 0 0 0 0 0 0 0 0 0 0 0 0 0 0 0 0 0 0 0 0 0 0 0 0 0
0 0 0 0 0 0 0 0 0 0 0 0 0 0 0 0 0 0 0 0 0 0 0 0 0 0 0 0 0 0 0 0 0 0 0 0 0 0 0 0 0 0 0 0
0 0 0 0 0 0 0 0 0 0 0 0 0 0 0 0 0 0 0 0 0 0 0 0 0 0 0 0 0 0 0 0 0 0 0 0 0 0 0 0 0 0 0 0
0 0 0 0 0 0 0 0 0 0 0 0 0 0 0 0 0 0 0 0 0 0 0 0 0 0 0 0 0 0 0 0 0 0 0 0 0 0 0 0 0 0 0 0
0 0 0 0 0 0 0 0 0 0 0 0 0 0 0 0 0 0 0 0 0 0 0 0 0 0 0 -0 -0 -0 0 0 0 0 0 0 0 0 0 0 0 0 0 0
0 0 0 0 0 0 0 0 0 0 0 0 0 0 0 0 0 0 0 0 0 0 0 0 0 0 0 0 -0 -0 -0 0 0 0 0 0 0 0 0 0 0 0 0 0
0 0 0 0 0 0 0 0 0 0 0 0 0 0 0 0 0 0 0 0 0 0 0 0 0 0 0 0 0 0 -0 0 0 0 0 0 0 0 0 0 0 0 0 0
0 0 0 0 0 0 0 0 0 0 0 0 0 0 0 0 0 0 0 0 0 0 0 0 0 0 0 0 0 0 -0 -0 0 0 0 0 0 0 0 0 0 0 0 0
0 0 0 0 0 0 0 0 0 0 0 0 0 0 0 0 0 0 0 0 0 0 0 0 0 0 -0 0 0 0 -0 -0 -0 0 0 0 0 0 0 0 0 0 0 0
Wind_Speed
1 2 4 8 8 9 5 3 4 5 6 5 4 2 1 2 4 6 7 9 10 8 6 7 8 8 8 7 6 4 3 2 1 1 1 3 4 4 4 4 5 5 5 6
3 5 12 10 6 3 1 3 4 5 7 5 3 3 4 3 0 4 7 9 9 7 6 7 7 7 7 6 5 4 3 2 0 1 2 3 4 4 4 4 5 6 6 6
7 8 6 3 3 3 3 2 2 3 5 6 5 7 7 7 5 5 6 6 7 9 7 6 6 6 6 6 5 4 3 2 1 1 1 2 2 3 3 3 3 5 6 6
3 3 1 1 2 1 2 2 3 5 5 4 3 2 7 4 4 4 5 5 5 5 6 6 6 5 5 4 4 4 3 2 1 1 0 1 1 3 4 3 4 5 5 6
4 3 2 1 1 1 2 2 4 4 2 3 4 1 7 3 1 1 3 4 4 5 6 6 6 5 5 5 5 4 3 2 1 1 0 0 2 3 3 3 5 5 5 5
4 3 1 2 1 1 2 6 8 7 5 2 4 1 6 4 4 3 3 3 5 6 6 6 5 5 4 4 4 4 4 2 2 1 0 0 2 3 4 5 5 5 4 4
6 6 4 1 2 5 6 7 6 7 6 4 4 1 7 6 5 6 6 6 7 7 7 7 7 6 5 5 5 5 5 3 2 2 1 0 1 2 3 4 4 5 4 4
1 5 4 3 1 1 1 8 7 3 4 6 4 2 6 4 6 7 8 8 8 7 7 8 8 8 7 7 6 6 5 4 3 2 1 1 0 1 1 2 3 4 4 5
1 3 5 5 3 2 1 2 8 7 1 2 4 3 4 2 3 5 7 7 8 8 9 8 8 7 7 7 7 7 6 5 4 3 2 1 1 0 1 2 3 3 4 5
2 2 5 6 5 3 3 3 5 4 2 3 5 4 4 6 7 5 5 6 7 7 6 6 7 7 7 7 6 6 6 6 4 4 3 2 1 0 1 2 3 4 5 5
4 3 5 6 3 3 3 2 3 3 5 5 3 7 5 6 5 5 5 4 4 4 5 5 6 6 6 6 6 6 6 5 4 4 3 3 2 1 0 1 2 3 4 5
3 5 2 6 7 3 2 2 5 3 4 5 4 7 8 2 2 1 3 4 4 3 3 3 4 4 5 6 6 6 6 6 5 5 4 4 3 2 1 1 2 3 4 5
5 6 4 10 10 8 4 3 1 4 3 3 4 4 8 9 10 9 8 7 7 7 7 5 3 3 4 5 6 7 7 7 6 6 5 4 4 3 2 2 2 2 3 4
7 5 6 5 7 6 7 9 8 2 3 5 4 1 8 10 10 10 10 9 9 9 9 8 6 5 4 4 5 6 7 7 7 6 6 5 5 4 4 3 2 2 2 3
6 3 4 6 8 6 8 10 9 6 5 5 4 5 5 6 6 7 9 11 13 13 13 12 10 8 7 6 5 5 6 7 7 7 7 7 6 5 4 3 3 2 1 2
4 4 2 4 6 6 6 8 5 5 5 6 8 5 5 5 7 9 10 12 13 13 14 14 13 11 10 9 8 7 7 7 7 8 8 7 6 6 5 5 3 2 1 0
3 5 2 4 6 4 4 5 6 8 9 6 5 3 6 8 11 7 8 11 11 11 12 12 12 12 12 11 9 8 9 7 8 9 8 7 7 7 7 6 5 4 2 1
7 5 4 2 3 1 1 4 10 11 10 8 5 5 6 7 8 3 6 8 9 11 11 11 11 12 12 12 11 9 7 6 8 9 8 8 8 8 7 7 6 5 3 3
7 8 5 3 2 3 2 3 1 3 5 7 6 7 8 8 6 3 5 7 7 7 8 8 8 9 11 12 13 11 7 5 6 8 9 9 9 9 8 8 8 6 4 4
5 5 5 4 3 4 1 9 10 3 4 6 8 8 9 9 6 6 9 10 11 9 8 8 8 8 10 11 12 12 9 7 7 8 9 9 10 10 10 10 8 5 5 5
5 5 1 2 3 1 6 11 9 3 4 8 7 8 8 6 7 10 12 11 10 10 10 9 8 8 8 9 9 10 10 10 9 8 7 8 9 10 10 9 7 7 6 6
3 3 3 2 1 2 8 7 6 2 5 6 8 9 10 11 12 13 12 11 11 10 10 9 7 8 8 7 7 9 10 10 11 10 8 8 9 9 9 9 8 8 8 7
5 2 1 3 2 1 3 3 1 3 6 8 9 12 12 13 13 13 12 12 11 11 10 8 8 9 8 7 7 8 9 10 11 11 10 8 8 8 8 10 10 8 8 7
6 5 4 4 3 1 2 2 3 5 8 11 12 13 13 14 14 14 12 11 10 10 10 8 8 9 9 8 8 8 9 8 9 11 11 8 7 7 8 8 8 9 9 8
5 6 4 4 2 4 4 6 8 9 11 13 13 13 14 14 14 14 12 11 10 9 8 8 8 9 11 10 9 9 8 7 8 10 9 8 6 7 8 8 9 11 10 12
3 3 2 1 3 4 8 10 11 12 13 15 15 14 13 12 13 13 12 10 10 10 9 9 9 10 11 10 10 10 8 6 7 8 8 6 5 6 7 7 6 8 8 14
Wind_Direction
262 87 246 237 215 212 239 283 309 311 334 46 66 76 343 14 99 123 121 117 111 103 99 88 89 91 88 79 80 83 80 61 97 187 217 249 264 265 261 252 249 250 244 235
356 258 240 241 251 237 300 357 340 338 355 41 32 360 338 349 168 161 144 132 126 117 97 88 93 94 98 101 96 91 96 97 118 226 222 229 242 252 248 256 261 257 255 251
216 247 237 219 319 350 1 54 35 0 2 26 45 353 342 342 37 85 109 125 130 130 127 116 104 104 106 110 120 124 129 127 153 235 264 286 292 297 304 294 282 274 269 263
243 266 314 359 331 11 324 353 38 24 33 328 48 319 303 328 31 81 122 130 136 135 135 133 127 121 124 139 143 139 137 130 136 109 50 308 289 286 284 286 286 289 281 274
315 327 354 2 328 44 254 0 19 353 357 345 349 81 290 337 9 188 175 158 162 163 156 157 158 162 163 162 157 151 147 150 153 106 104 305 291 278 290 303 307 302 294 285
290 295 246 217 283 20 44 32 12 27 55 5 281 188 278 262 218 192 198 189 189 183 177 180 185 177 175 167 158 155 152 167 162 132 85 345 304 308 316 317 316 312 306 300
331 334 336 6 33 8 65 71 27 1 8 272 280 190 254 252 199 171 182 208 210 199 189 193 196 194 190 180 173 168 166 180 182 155 134 68 311 318 315 313 314 314 310 305
353 322 327 1 101 227 162 128 147 195 235 282 323 247 259 234 188 180 190 209 214 210 206 204 204 199 194 187 181 176 174 180 181 167 174 180 335 335 316 314 310 308 302 297
159 276 307 319 299 143 177 199 167 144 225 320 300 290 305 286 238 223 219 219 219 218 216 213 208 200 196 193 190 181 177 181 184 180 175 165 124 21 319 318 319 313 308 307
119 280 305 320 359 355 153 159 82 97 145 278 297 297 258 253 249 253 244 236 236 232 226 218 208 204 202 196 190 179 176 181 186 180 176 161 157 197 300 323 326 319 316 317
106 111 318 354 353 302 346 34 108 132 161 166 255 273 267 240 235 227 241 248 249 245 238 226 218 211 200 192 185 183 184 179 178 179 174 161 173 194 274 314 311 314 316 320
118 110 307 287 279 269 140 155 140 154 248 191 192 269 318 320 337 350 343 352 349 331 301 261 233 214 200 199 197 193 190 184 186 182 176 175 175 175 199 281 301 313 318 321
118 95 27 345 344 354 3 320 239 165 157 199 203 261 347 18 24 21 23 14 7 3 354 343 318 255 227 216 208 202 197 194 190 182 178 177 179 182 202 232 271 298 314 324
106 113 152 202 242 272 298 301 298 253 209 229 214 193 354 10 12 10 13 11 11 7 2 354 333 300 275 247 223 210 205 199 191 184 180 186 195 195 199 207 234 277 304 326
98 147 207 225 246 262 281 293 296 287 238 191 146 96 11 353 356 8 15 13 13 7 3 357 346 330 314 290 256 231 216 204 192 185 189 198 199 193 187 192 212 246 297 332
118 168 215 282 274 286 302 321 330 14 32 88 100 68 346 337 2 20 20 17 11 2 356 353 351 342 328 310 280 249 229 213 194 192 198 197 191 190 190 194 199 209 247 331
172 155 150 271 296 344 353 357 76 66 37 66 67 16 347 357 356 10 16 14 2 353 348 343 341 337 326 318 302 265 239 217 199 199 199 194 191 194 195 192 189 194 196 172
168 147 150 209 0 278 207 76 105 95 59 49 51 15 0 340 318 339 29 3 343 339 336 334 330 327 326 325 321 303 263 224 208 203 202 199 194 195 193 188 192 194 185 179
162 146 143 148 199 236 125 36 338 147 75 23 16 357 344 326 313 305 359 342 324 317 313 312 317 320 324 330 330 323 300 261 228 216 210 203 196 194 191 191 195 191 179 180
50 92 128 156 196 230 301 337 327 105 110 12 3 348 340 346 341 303 320 322 315 311 309 310 313 321 332 332 336 333 321 300 267 246 228 208 194 192 193 194 190 182 176 181
4 11 44 218 230 94 340 333 351 30 318 334 340 331 325 313 274 280 296 298 294 293 295 302 308 310 311 319 330 332 326 314 301 286 257 220 199 194 193 188 181 175 174 172
62 26 359 3 325 329 345 21 44 310 300 317 316 308 300 289 285 288 291 290 291 291 291 294 296 297 299 307 317 315 313 312 312 302 274 235 208 198 192 182 181 176 172 172
49 7 101 83 112 148 41 70 347 307 301 295 290 289 289 290 290 291 291 291 290 289 290 288 287 292 295 294 298 302 301 310 313 306 288 257 222 202 185 180 180 176 175 176
4 0 93 93 93 74 50 360 303 279 273 280 285 289 290 289 291 293 292 291 290 289 289 287 290 293 293 289 283 282 287 296 308 303 291 268 232 207 192 183 178 178 180 181
355 4 52 70 355 325 311 298 286 286 291 293 294 293 293 294 296 296 297 295 293 292 288 284 283 285 287 289 283 281 284 291 301 301 291 273 246 215 197 189 186 185 189 187
14 33 42 313 276 269 277 284 293 299 298 299 300 300 299 300 300 301 300 296 294 293 291 289 286 283 285 286 284 281 276 274 289 298 297 282 259 230 201 188 185 196 188 189